Regional Weather Roundup
Issued by NWS Newport/Morehead, NC

Current Version | Previous Version | Graphics & Text | Print | Product List | Glossary On
Versions: 1 2 3 4 5 6 7 8 9 10 11 12 13 14 15 16 17 18 19 20 21 22 23 24 25 26 27 28 29 30 31 32 33 34 35 36 37 38 39 40 41 42 43 44 45 46 47 48 49 50
000 ASUS42 KMHX 271813 RWRMHX WEATHER ROUNDUP FOR EASTERN NORTH CAROLINA NATIONAL WEATHER SERVICE NEWPORT/MOREHEAD CITY NC 200 PM EDT WED JUL 27 2016 NOTE: "FAIR" INDICATES FEW OR NO CLOUDS BELOW 12,000 FEET WITH NO SIGNIFICANT WEATHER AND/OR OBSTRUCTIONS TO VISIBILITY NCZ015>017-031-032-045>047-102-103-271900- NORTH COAST CITY SKY/WX TMP DP RH WIND PRES REMARKS EDENTON MOSUNNY 91 75 59 SW6 29.95F HX 102 ELIZABETH CITY SUNNY 93 77 59 W8 29.93F HX 107 KITTY HAWK CLEAR 94 74 52 W5 29.94F HX 103 MANTEO N/A 89 78 70 N5 29.95F HX 102 $$ NCZ045>047-081-094-103-104-271900- CENTRAL COAST CITY SKY/WX TMP DP RH WIND PRES REMARKS FRISCO SUNNY 88 78 72 VRB6 29.96F HX 101 $$ NCZ095-097-098-100-101-271900- SOUTHERN COAST CITY SKY/WX TMP DP RH WIND PRES REMARKS BEAUFORT MOSUNNY 89 78 70 SW15 29.97F HX 103 CEDAR ISLAND NOT AVBL JACKSONVILLE SUNNY 95 73 48 W10 29.96F HX 104 PINEY ISLAND NOT AVBL WILMINGTON SUNNY 96 73 47 W12 29.97F HX 105 $$ NCZ011>013-027>030-043-044-078>080-089-090>093-098-271900- COASTAL PLAIN CITY SKY/WX TMP DP RH WIND PRES REMARKS AHOSKIE SUNNY 88 77 70 CALM 29.95F HX 101 CLINTON SUNNY 96 76 51 W8 29.97F HX 109 ELIZABETHTOWN SUNNY 96 72 46 SW5 29.98F HX 104 GOLDSBORO SUNNY 95 76 55 W9 29.95F HX 108 GREENVILLE MOSUNNY 95 79 59 W3 29.97F HX 112 HAVELOCK MOSUNNY 94 77 57 VRB6 29.97F HX 108 KENANSVILLE NOT AVBL KINSTON SUNNY 95 73 49 W3 29.96F HX 105 NEW BERN SUNNY 94 76 55 NW5 29.97F HX 106 RICHLANDS PTSUNNY 98 77 50 W9 29.97F HX 113 ROCKY MOUNT MOSUNNY 93 78 61 VRB5 29.96F HX 108 WASHINGTON MOSUNNY 91 78 65 CALM 29.95F HX 106 WHITEVILLE SUNNY 94 74 52 SW5 29.98F HX 104 $$ AMZ130-135-150-152-154-156-158-170-250-252-270-ANZ085-086-088-633-658-670-271900- MARINE OBSERVATIONS STATION/POSITION TIME TEMP WIND PRES WAVE SWELL AIR SEA DIR/SP/G HT/PER HT/PER (UTC) (F) (DEG/KT/KT) (MB) (FT/S) (FT/S) CHESAPEAKE LIGHT NOT AVBL 64 E VA BEACH 1750 82 82 210/ 6/ 6 1013.6 3/ 6 2/ 6 DUCK 1700 85 67 70/ 4/ 4 1013.9 2 E DUCK 1711 78 N/A 1/ 8 OREGON INLET 1700 88 84 200/ 2/ 4 1014.5 13E OREGON INLT 1800 85 N/A 2/ 5 2/ 5 HATTERAS CG 1700 87 83 260/ 7/ 10 1014.6 DIAMOND BUOY 1750 84 85 250/ 8/ 10 1014.6 3/ 6 3/ 6 CAPE LOOKOUT 1800 87 230/ 11/ 14 1014.7 BEAUFORT LAB 1700 88 82 220/ 7/ 12 1014.6 30 SE NEW RVR IN 1708 85 85 230/ 12/ 16 1015.7 30 SE NEW RVR IN 1755 85 N/A 4/ 6 27 SE WRIGHTSVLE 1708 85 84 230/ 14/ 17 1015.9 5 SE WRIGHTSVLE 1708 84 81 210/ 10/ 14 1016.2 225 S CAPE HAT 1750 85 85 300/ 12/ 12 1017.8 4/ 6 3/ 6 41 SE CHARLESTON 1750 84 86 230/ 10/ 12 1016.9 3/ 6 2/ 6 $$

USA.gov is the U.S. government's official web portal to all federal, state and local government web resources and services.